DW1234 Weather Reports


time (UTC)temp
C
wind
direction
speed
KPH
gust
KPH
rain 1hr
cm
rain 24hr
cm
rain mn
cm
humidity
%
barometer
mb
20260504221229 25 346 22.5 41.8 0.00 0.00 0.00 29 1003.4
20260504220739 25 10 30.6 41.8 0.00 0.00 0.00 28 1003.3
20260504220224 25 5 25.7 38.6 0.00 0.00 0.00 28 1003.2
20260504220051 25 347 24.1 38.6 0.00 0.00 0.00 28 1001.9
20260504215736 25 5 24.1 38.6 0.00 0.00 0.00 29 1003.3
20260504215248 26 24 24.1 43.5 0.00 0.00 0.00 31 1003.2
20260504214733 26 16 25.7 43.5 0.00 0.00 0.00 29 1003.4
20260504214559 26 335 30.6 43.5 0.00 0.00 0.00 29 1001.9
20260504214500 26 305 27.4 43.5 0.00 0.00 0.00 28 1001.9
20260504214243 26 333 22.5 37.0 0.00 0.00 0.00 31 1003.3
20260504213725 26 360 24.1 38.6 0.00 0.00 0.00 32 1003.2
20260504213239 26 355 25.7 38.6 0.00 0.00 0.00 30 1003.2
20260504213011 26 333 29.0 38.6 0.00 0.00 0.00 29 1001.9
20260504212749 26 355 22.5 38.6 0.00 0.00 0.00 31 1003.2
20260504212233 26 30 22.5 37.0 0.00 0.00 0.00 33 1003.2
20260504211746 26 338 27.4 40.2 0.00 0.00 0.00 31 1003.1
20260504211557 26 5 25.7 40.2 0.00 0.00 0.00 31 1001.7
20260504211237 26 350 27.4 40.2 0.00 0.00 0.00 32 1003.1
20260504210746 26 29 22.5 41.8 0.00 0.00 0.00 32 1003.0
20260504210238 26 12 30.6 41.8 0.00 0.00 0.00 31 1003.0
20260504210054 26 340 29.0 40.2 0.00 0.00 0.00 33 1001.7
20260504205721 27 351 17.7 30.6 0.00 0.00 0.00 34 1003.0
20260504205232 27 351 22.5 41.8 0.00 0.00 0.00 32 1002.9
20260504204748 27 360 27.4 41.8 0.00 0.00 0.00 33 1002.9
20260504204559 26 340 24.1 37.0 0.00 0.00 0.00 33 1001.5
20260504204232 27 355 22.5 35.4 0.00 0.00 0.00 32 1003.0
20260504203742 27 327 24.1 35.4 0.00 0.00 0.00 32 1002.9
20260504203226 27 355 22.5 33.8 0.00 0.00 0.00 30 1002.8
20260504203106 27 15 24.1 33.8 0.00 0.00 0.00 34 1001.5
20260504202752 27 321 25.7 38.6 0.00 0.00 0.00 32 1002.7
20260504202244 27 336 25.7 38.6 0.00 0.00 0.00 32 1002.9
20260504201728 27 346 25.7 35.4 0.00 0.00 0.00 32 1002.9
20260504201541 27 331 16.1 35.4 0.00 0.00 0.00 31 1001.5
20260504201241 27 321 22.5 37.0 0.00 0.00 0.00 31 1003.1
20260504200724 27 350 24.1 38.6 0.00 0.00 0.00 31 1002.9
20260504200235 27 304 20.9 38.6 0.00 0.00 0.00 31 1002.9
20260504200047 27 360 25.7 38.6 0.00 0.00 0.00 32 1001.5
20260504195747 27 351 24.1 40.2 0.00 0.00 0.00 31 1002.8
20260504195228 28 360 20.9 41.8 0.00 0.00 0.00 33 1002.7
20260504194732 27 319 25.7 33.8 0.00 0.00 0.00 33 1002.8
20260504194600 27 328 20.9 35.4 0.00 0.00 0.00 32 1001.6
20260504194246 28 360 22.5 37.0 0.00 0.00 0.00 31 1002.8
20260504193736 28 346 25.7 37.0 0.00 0.00 0.00 31 1002.7
20260504193246 28 351 19.3 40.2 0.00 0.00 0.00 30 1002.6
20260504193036 28 338 24.1 40.2 0.00 0.00 0.00 30 1001.3
20260504192728 28 319 20.9 32.2 0.00 0.00 0.00 30 1002.5
20260504192239 28 323 12.9 37.0 0.00 0.00 0.00 28 1002.6
20260504191721 29 291 22.5 37.0 0.00 0.00 0.00 28 1002.5
20260504191545 28 308 19.3 33.8 0.00 0.00 0.00 28 1001.3
20260504191231 29 319 19.3 38.6 0.00 0.00 0.00 28 1002.5
20260504190741 28 300 22.5 38.6 0.00 0.00 0.00 28 1002.5
20260504190224 28 321 14.5 33.8 0.00 0.00 0.00 30 1002.4
20260504190108 28 283 20.9 40.2 0.00 0.00 0.00 29 1001.2
20260504185736 28 317 22.5 40.2 0.00 0.00 0.00 28 1002.4
20260504185248 28 318 24.1 41.8 0.00 0.00 0.00 26 1002.3
20260504184739 28 9 20.9 35.4 0.00 0.00 0.00 27 1002.3
20260504184535 28 315 20.9 35.4 0.00 0.00 0.00 28 1001.2
20260504184224 28 313 20.9 32.2 0.00 0.00 0.00 29 1002.4
20260504183733 28 285 19.3 33.8 0.00 0.00 0.00 29 1002.4
20260504183241 28 290 22.5 33.8 0.00 0.00 0.00 29 1002.3
20260504183036 28 303 24.1 37.0 0.00 0.00 0.00 29 1001.2
20260504182722 28 318 20.9 37.0 0.00 0.00 0.00 30 1002.5
20260504182234 28 304 27.4 40.2 0.00 0.00 0.00 28 1002.6
20260504181746 28 303 24.1 40.2 0.00 0.00 0.00 28 1002.6
20260504181524 27 301 20.9 40.2 0.00 0.00 0.00 30 1001.4
20260504181229 28 332 25.7 40.2 0.00 0.00 0.00 29 1002.6
20260504180739 28 294 22.5 35.4 0.00 0.00 0.00 27 1002.6
20260504180222 28 288 22.5 35.4 0.00 0.00 0.00 29 1002.7
20260504180029 28 294 24.1 35.4 0.00 0.00 0.00 28 1001.5
20260504175730 28 313 20.9 35.4 0.00 0.00 0.00 31 1002.6
20260504175240 28 316 24.1 38.6 0.00 0.00 0.00 32 1002.7
20260504174723 28 332 27.4 38.6 0.00 0.00 0.00 29 1002.8
20260504174529 28 309 22.5 38.6 0.00 0.00 0.00 31 1001.6
20260504174236 27 340 24.1 33.8 0.00 0.00 0.00 32 1002.7
20260504173747 27 339 14.5 25.7 0.00 0.00 0.00 32 1002.8
20260504173230 27 319 17.7 30.6 0.00 0.00 0.00 32 1002.9
20260504173027 27 338 17.7 37.0 0.00 0.00 0.00 33 1001.7
20260504172742 27 296 16.1 37.0 0.00 0.00 0.00 33 1003.0
20260504172225 27 277 16.1 24.1 0.00 0.00 0.00 32 1003.0
20260504171733 27 292 16.1 33.8 0.00 0.00 0.00 33 1003.0
20260504171535 27 314 14.5 33.8 0.00 0.00 0.00 34 1001.9
20260504171245 27 292 22.5 33.8 0.00 0.00 0.00 34 1003.2
20260504170727 26 319 16.1 30.6 0.00 0.00 0.00 35 1003.3
20260504170238 26 345 16.1 30.6 0.00 0.00 0.00 37 1003.2
20260504160228 24 279 12.9 20.9 0.00 0.00 0.00 42 1003.2
20260504150741 21 278 9.7 17.7 0.00 0.00 0.00 45 1003.3
20260504150225 21 307 11.3 16.1 0.00 0.00 0.00 43 1003.2
20260504141249 18 303 11.3 19.3 0.00 0.00 0.00 53 1003.5
20260504140731 18 342 11.3 22.5 0.00 0.00 0.00 55 1003.6
20260504140242 18 296 16.1 22.5 0.00 0.00 0.00 53 1003.7
20260504130740 16 325 3.2 6.4 0.00 0.00 0.00 58 1003.3
20260504130222 15 256 1.6 3.2 0.00 0.00 0.00 60 1003.2
20260504120252 10 355 3.2 4.8 0.00 0.00 0.00 68 1003.2
20260504110243 11 171 3.2 4.8 0.00 0.00 0.00 62 1003.0
20260504100242 12 165 8.0 11.3 0.00 0.00 0.00 59 1003.3
20260504081801 12 175 4.8 9.7 0.00 0.00 0.00 57 1004.6
20260504081535 12 179 6.4 11.3 0.00 0.00 0.00 57 1003.6
20260504081224 12 163 6.4 11.3 0.00 0.00 0.00 57 1004.7
20260504080736 12 169 8.0 11.3 0.00 0.00 0.00 57 1004.8
20260504080246 12 175 6.4 9.7 0.00 0.00 0.00 57 1004.8
20260504070236 13 169 8.0 9.7 0.00 0.00 0.00 56 1005.9
20260504060235 13 169 4.8 8.0 0.00 0.00 0.00 56 1006.7
20260504050745 15 169 6.4 9.7 0.00 0.00 0.00 50 1007.5
20260504050226 15 175 8.0 9.7 0.00 0.00 0.00 50 1007.5
20260504050012 15 170 6.4 9.7 0.00 0.00 0.00 50 1006.5
20260504045738 16 177 8.0 9.7 0.00 0.00 0.00 50 1007.6
20260504045222 16 171 8.0 11.3 0.00 0.00 0.00 50 1007.6
20260504044749 16 173 8.0 9.7 0.00 0.00 0.00 51 1007.6
20260504044514 16 158 6.4 9.7 0.00 0.00 0.00 51 1006.7
20260504044235 16 174 6.4 9.7 0.00 0.00 0.00 51 1007.7
20260504043805 17 165 6.4 8.0 0.00 0.00 0.00 50 1007.7
20260504043226 17 163 6.4 8.0 0.00 0.00 0.00 49 1007.8
20260504043106 16 178 4.8 8.0 0.00 0.00 0.00 49 1007.0
20260504042739 17 175 4.8 8.0 0.00 0.00 0.00 48 1007.9
20260504042221 17 173 8.0 9.7 0.00 0.00 0.00 46 1007.8
20260504041734 17 178 4.8 8.0 0.00 0.00 0.00 44 1007.9
20260504041554 17 184 4.8 9.7 0.00 0.00 0.00 44 1007.0
20260504041243 17 173 4.8 9.7 0.00 0.00 0.00 43 1008.0
20260504040724 17 188 6.4 9.7 0.00 0.00 0.00 42 1007.9
20260504040256 18 179 4.8 8.0 0.00 0.00 0.00 40 1008.0
20260504040040 17 178 4.8 6.4 0.00 0.00 0.00 40 1007.1
20260504035745 18 178 3.2 6.4 0.00 0.00 0.00 39 1008.1
20260504035228 18 178 3.2 4.8 0.00 0.00 0.00 39 1008.2
20260504034759 18 178 3.2 4.8 0.00 0.00 0.00 40 1008.1
20260504034522 18 178 1.6 4.8 0.00 0.00 0.00 40 1007.1
20260504034250 18 178 3.2 4.8 0.00 0.00 0.00 40 1008.2
20260504033727 18 178 4.8 6.4 0.00 0.00 0.00 40 1008.3
20260504033241 18 178 4.8 6.4 0.00 0.00 0.00 40 1008.3
20260504033037 18 178 4.8 6.4 0.00 0.00 0.00 40 1007.3
20260504032810 18 178 4.8 6.4 0.00 0.00 0.00 40 1008.3
20260504032232 18 182 4.8 6.4 0.00 0.00 0.00 39 1008.3
20260504031741 18 194 4.8 4.8 0.00 0.00 0.00 38 1008.4
20260504031512 18 194 1.6 4.8 0.00 0.00 0.00 38 1007.4
20260504031225 18 194 3.2 4.8 0.00 0.00 0.00 38 1008.3
20260504030736 18 194 3.2 3.2 0.00 0.00 0.00 38 1008.4
20260504030243 18 194 3.2 4.8 0.00 0.00 0.00 40 1008.4
20260504030018 18 194 1.6 4.8 0.00 0.00 0.00 40 1007.5
20260504025727 18 194 3.2 4.8 0.00 0.00 0.00 40 1008.5
20260504025239 18 194 3.2 4.8 0.00 0.00 0.00 41 1008.4
20260504024723 18 194 3.2 4.8 0.00 0.00 0.00 41 1008.5
20260504024525 18 194 3.2 4.8 0.00 0.00 0.00 41 1007.6
20260504024236 18 194 3.2 4.8 0.00 0.00 0.00 41 1008.5
20260504023745 18 194 3.2 4.8 0.00 0.00 0.00 41 1008.6
20260504023237 18 194 3.2 4.8 0.00 0.00 0.00 40 1008.6
20260504023008 18 194 3.2 4.8 0.00 0.00 0.00 40 1007.7
20260504022749 18 194 3.2 4.8 0.00 0.00 0.00 40 1008.6
20260504022228 18 194 3.2 6.4 0.00 0.00 0.00 40 1008.7
20260504021759 18 194 3.2 6.4 0.00 0.00 0.00 40 1008.7
20260504021554 18 194 3.2 6.4 0.00 0.00 0.00 40 1007.8
20260504021251 19 194 4.8 6.4 0.00 0.00 0.00 40 1008.7
20260504020730 19 194 3.2 6.4 0.00 0.00 0.00 40 1008.8
20260504020243 19 194 4.8 8.0 0.00 0.00 0.00 40 1008.8
20260504020049 18 194 3.2 8.0 0.00 0.00 0.00 40 1007.9
20260504015726 19 194 4.8 8.0 0.00 0.00 0.00 40 1008.9
20260504015238 19 194 3.2 4.8 0.00 0.00 0.00 39 1008.9
20260504014722 20 194 3.2 6.4 0.00 0.00 0.00 39 1008.8
20260504014603 19 194 3.2 6.4 0.00 0.00 0.00 38 1007.9
20260504014502 19 194 3.2 8.0 0.00 0.00 0.00 38 1007.9
20260504014232 20 202 4.8 8.0 0.00 0.00 0.00 38 1008.8
20260504013741 20 194 4.8 8.0 0.00 0.00 0.00 37 1008.8
20260504013224 20 202 4.8 6.4 0.00 0.00 0.00 36 1008.8
20260504013015 20 172 4.8 8.0 0.00 0.00 0.00 36 1007.9
20260504012734 20 172 4.8 6.4 0.00 0.00 0.00 36 1008.8
20260504012247 21 172 3.2 8.0 0.00 0.00 0.00 36 1008.8
20260504011731 21 172 4.8 6.4 0.00 0.00 0.00 36 1008.8
20260504011512 21 172 3.2 8.0 0.00 0.00 0.00 36 1008.0
20260504011245 21 172 4.8 8.0 0.00 0.00 0.00 35 1008.9
20260504010727 21 198 4.8 8.0 0.00 0.00 0.00 35 1008.9
20260504010235 21 196 4.8 9.7 0.00 0.00 0.00 35 1009.0
20260504010013 21 201 4.8 9.7 0.00 0.00 0.00 34 1008.1
20260504005748 21 198 4.8 11.3 0.00 0.00 0.00 35 1009.0
20260504005231 21 203 6.4 11.3 0.00 0.00 0.00 35 1009.1
20260504004744 22 213 8.0 14.5 0.00 0.00 0.00 34 1009.1
20260504004517 21 225 6.4 14.5 0.00 0.00 0.00 34 1008.3
20260504004227 22 219 8.0 14.5 0.00 0.00 0.00 35 1009.2
20260504003738 22 202 8.0 12.9 0.00 0.00 0.00 34 1009.3
20260504003222 22 201 8.0 12.9 0.00 0.00 0.00 34 1009.2
20260504003021 22 211 8.0 12.9 0.00 0.00 0.00 34 1008.3
20260504002732 22 206 8.0 16.1 0.00 0.00 0.00 33 1009.3
20260504002240 22 225 8.0 19.3 0.00 0.00 0.00 33 1009.3
20260504001723 22 211 11.3 19.3 0.00 0.00 0.00 33 1009.3
20260504001526 22 214 11.3 19.3 0.00 0.00 0.00 32 1008.5
20260504001237 23 207 12.9 19.3 0.00 0.00 0.00 33 1009.4
20260504000748 23 180 11.3 16.1 0.00 0.00 0.00 32 1009.5
20260504000230 23 180 11.3 16.1 0.00 0.00 0.00 32 1009.5
20260504000040 22 189 9.7 16.1 0.00 0.00 0.00 32 1008.6
20260503235743 23 182 11.3 16.1 0.00 0.00 0.00 31 1009.5
20260503235227 23 212 9.7 16.1 0.00 0.00 0.00 31 1009.5
20260503234757 23 184 9.7 17.7 0.00 0.00 0.00 32 1009.4
20260503234511 23 201 11.3 17.7 0.00 0.00 0.00 32 1008.5
20260503234247 23 172 11.3 17.7 0.00 0.00 0.00 32 1009.5
20260503233729 23 178 12.9 17.7 0.00 0.00 0.00 32 1009.6
20260503233241 23 192 14.5 17.7 0.00 0.00 0.00 32 1009.5
20260503233016 23 211 12.9 17.7 0.00 0.00 0.00 33 1008.7
20260503232725 23 208 11.3 17.7 0.00 0.00 0.00 32 1009.6
20260503232238 23 207 9.7 14.5 0.00 0.00 0.00 32 1009.7
20260503231722 23 201 6.4 12.9 0.00 0.00 0.00 33 1009.7
20260503231523 23 219 6.4 14.5 0.00 0.00 0.00 33 1008.7
20260503231235 23 209 9.7 16.1 0.00 0.00 0.00 32 1009.6
20260503230740 23 215 11.3 24.1 0.00 0.00 0.00 31 1009.7
20260503230224 23 211 14.5 24.1 0.00 0.00 0.00 33 1009.6
20260503230023 23 194 11.3 19.3 0.00 0.00 0.00 32 1008.7
20260503225755 23 203 8.0 14.5 0.00 0.00 0.00 32 1009.6
20260503225247 23 234 8.0 14.5 0.00 0.00 0.00 33 1009.7
20260503224731 23 252 11.3 16.1 0.00 0.00 0.00 33 1009.7
20260503224513 23 229 4.8 11.3 0.00 0.00 0.00 32 1008.7
20260503224244 23 226 1.6 9.7 0.00 0.00 0.00 32 1009.6
20260503223734 24 226 6.4 22.5 0.00 0.00 0.00 30 1009.7
20260503223243 24 223 11.3 22.5 0.00 0.00 0.00 31 1009.8
20260503223053 24 242 12.9 22.5 0.00 0.00 0.00 31 1008.9
20260503222725 25 282 4.8 14.5 0.00 0.00 0.00 31 1009.8
20260503222237 25 296 4.8 14.5 0.00 0.00 0.00 33 1009.8
20260503221722 24 66 1.6 12.9 0.00 0.00 0.00 31 1009.8
20260503221507 24 10 1.6 14.5 0.00 0.00 0.00 32 1008.9